Torna al catalogo

METEOSAT 10

MSG 3

AttivoMeteoGEO
NORAD 38552·PAYLOAD·🇪🇺 EU

Lanciato Jul 5, 2012 da Guiana Space Centre

Loading…

TLE

AggiornatoSource: Space-Track

Epoca: Sep 14, 2026, 13:48 UTC

1 38552U 12035B   26257.57518769 -.00000013  00000-0  00000-0 0  9999
2 38552   4.8791  60.5182 0000845  98.2348  41.9320  1.00271417 51757

Traccia METEOSAT 10 in tempo reale con AllMySat

Download on the App Store